Starlink 30537

operational
NORAD ID: 57991 Int'l Des: 2023-153 Owner: SPXS Country: US Constellation: starlink
LEOCIRCULAR

Starlink 30537について

説明を読み込み中...

リアルタイム位置

3D地球を読み込み中...

次回通過

高度履歴

Altitude vs Time

uPlot chart will show altitude changes over time

軌道要素

1 57991U 23153A 25304.99875397 -.00000059 00000-0 10705-4 0 9998
2 57991 43.0041 48.3885 0001371 269.1152 90.9534 15.02530893115417
Epoch: Oct 31, 2025 • Age: 26 hours

現在のステータス

高度 562.3 km
速度 7.58 km/s
衛星直下点 -16.91°S, 163.6°E
打ち上げ日 Oct 5, 2023
運用期間 2 years
タイプ internet

技術仕様

分類 Payload
質量 730.00 kg
乾燥質量 700.00 kg
総質量 730.00 kg
長さ 0.30 m
直径 4.10 m
スパン 29.00 m
形状 Box + pan
製造者 SPXS
バスタイプ Starlink V2M
フェーズステータス In Orbit
所有者/国 SPXS/US

大規模コンステレーション

Loading constellations...